Location: Caltech
(34.1382°N, 118.1253°W)
Time: 10:33:47
(UTC-07:00)

Hubble Space Telescope - Visible Passes

Search period start: 15 May 2021 00:00
Search period end: 25 May 2021 00:00
Orbit: 535 x 539 km, 28.5° (Epoch: 14 May)

Date Brightness Start Highest point End Pass type
(mag) Time Alt. Az. Time Alt. Az. Time Alt. Az.
19 May 3.2 04:39:37 10° SSE 04:40:13 10° SSE 04:40:50 10° SSE visible
20 May 3.0 04:27:50 11° S 04:29:11 13° SSE 04:31:05 10° SE visible
21 May 2.7 04:17:22 15° S 04:18:09 16° SSE 04:20:39 10° ESE visible
22 May 2.5 04:06:53 19° SSE 04:07:07 19° SSE 04:10:02 10° ESE visible
23 May 2.3 03:56:23 22° SSE 03:56:23 22° SSE 03:59:18 10° ESE visible
24 May 2.3 03:45:53 23° SSE 03:45:53 23° SSE 03:48:30 10° ESE visible
